#timestamp,LO_Frequency,Hit 
1597489215.2,286046998.5,N
1597489235.9,286047001.1,N
1597489255.7,286047001.0,N
1597489275.6,286046998.2,N
1597489295.4,286046998.2,N
1597489315.2,286047000.9,N
1597489335.1,286047001.0,N
1597489336.0,286047001.0,N
1597489355.8,286047000.7,N
1597489375.6,286047001.1,N
1597489395.5,286046998.1,N
1597489415.3,286046998.1,N
1597489435.1,286046998.1,N
1597489455.8,286046998.6,N
1597489475.7,286046998.4,N
1597489495.5,286046999.3,N
1597489515.3,286047001.1,N
1597489535.2,286046998.4,N
1597489555.0,286046999.0,N
1597489555.9,286046999.0,N
1597489575.7,286047000.8,N
1597489595.6,286047000.8,N
1597489615.4,286046998.8,N
1597489635.2,286047001.1,N
1597489655.1,286046999.5,N
1597489656.0,286046999.5,N
1597489675.8,286046999.3,N
1597489695.6,286046999.3,N
1597489715.5,286046999.1,N
1597489735.3,286046996.5,P
1597489755.1,286046996.6,N
1597489775.9,286046998.2,N
1597489795.7,286046998.3,N
1597489815.5,286046998.9,N
1597489835.4,286046996.7,N
1597489855.2,286046998.9,N
1597489875.0,286046998.7,N
1597489875.9,286046998.7,N
1597489895.8,286046997.0,N
1597489915.6,286046996.8,P
1597489935.5,286047000.6,N
1597489955.3,286046998.5,N
1597489975.1,286046998.6,N
1597489995.8,286047000.9,N
1597490015.7,286046999.9,N
1597490035.5,286047000.3,N
1597490055.3,286047000.7,N
1597490075.2,286047000.4,N
1597490095.0,286046998.1,N
1597490095.9,286046998.1,N
1597490115.7,286047000.9,N
1597490135.6,286046998.1,N
1597490155.4,286047000.5,N
1597490175.2,286046998.5,N
1597490195.1,286046998.2,N
1597490196.0,286046998.2,N
1597490215.8,286046998.6,N
1597490235.6,286047000.9,N
1597490255.5,286046998.3,N
1597490275.3,286047001.1,N
1597490295.1,286046996.5,N
1597490315.9,286046999.5,N
1597490335.7,286046999.4,N
1597490355.5,286046998.4,N
1597490375.4,286046998.9,N
1597490395.2,286046998.2,N
1597490415.0,286046998.7,N
1597490415.9,286046998.7,N
1597490435.8,286046998.2,N
1597490455.6,286046999.2,N
1597490475.4,286046998.9,N
1597490495.3,286046998.3,N
1597490515.1,286047001.0,N
1597490516.0,286047001.0,N
1597490535.8,286046999.3,N
1597490555.7,286046998.4,N
1597490575.5,286046998.1,N
1597490595.3,286047000.9,N
1597490615.2,286046999.4,N
1597490635.9,286046998.9,N
1597490655.7,286046999.3,N
1597490675.6,286046999.0,N
1597490695.4,286046998.5,N
1597490715.2,286046999.3,N
1597490735.0,286046998.4,N
1597490736.0,286046998.4,N
1597490755.8,286047000.7,N
1597490775.6,286046999.0,N
1597490795.4,286046999.0,N
1597490815.3,286046999.1,N
1597490835.1,286046999.0,N
1597490855.8,286046999.1,N
1597490875.7,286046999.0,N
1597490895.5,286046999.5,N
1597490915.3,286046999.0,N
1597490935.2,286046999.4,N
1597490955.0,286046998.4,N
1597490955.9,286046998.4,N
1597490975.7,286046998.7,N
1597490995.6,286046998.6,N
1597491015.4,286046998.9,N
1597491035.2,286046999.4,N
1597491055.1,286046998.9,N
1597491056.0,286046998.9,N
1597491075.8,286046999.2,N
1597491095.6,286046998.4,N
1597491115.5,286046999.2,N
1597491135.3,286046998.4,N
1597491155.2,286046997.1,P
1597491175.9,286046998.3,N
1597491195.7,286046998.7,N
1597491215.6,286046998.4,N
1597491235.4,286047001.1,N
1597491255.2,286047001.1,N
1597491275.0,286047000.8,N
1597491276.0,286047000.8,N
1597491295.8,286046996.6,N
1597491315.6,286046996.5,N
1597491335.4,286047001.1,N
1597491355.3,286046996.5,N
1597491375.1,286046998.8,N
1597491395.8,286046999.4,N
1597491415.7,286046998.2,N
1597491435.5,286046998.8,N
1597491455.3,286046999.5,N
1597491475.2,286046996.6,N
1597491495.0,286046998.8,N
1597491495.9,286046998.8,N
1597491515.7,286046999.1,N
1597491535.6,286046998.3,N
1597491555.4,286046999.5,N
1597491575.2,286046996.6,N
1597491595.1,286046999.1,N
1597491596.0,286046999.1,N
1597491615.8,286046997.1,N
1597491635.6,286046996.6,N
1597491655.5,286046996.6,N
1597491675.3,286046996.9,N
1597491695.1,286046996.8,N
1597491715.9,286046996.9,N
1597491735.7,286046996.8,N
1597491755.5,286046997.4,N
1597491775.4,286046997.4,N
1597491795.2,286046996.5,N
1597491815.0,286046996.8,N
1597491815.9,286046996.8,N
1597491835.8,286046997.2,N
1597491855.6,286046999.0,N
1597491875.4,286046999.2,N
1597491895.3,286046996.8,N
1597491915.1,286046999.4,N
1597491916.0,286046999.4,N
1597491935.8,286046996.7,N
1597491955.7,286046996.8,N
1597491975.5,286046999.1,N
1597491995.3,286046996.6,P
1597492015.2,286046999.8,N
1597492035.9,286047000.3,N
1597492055.7,286047001.0,N
1597492075.6,286047000.9,N
1597492095.4,286046999.9,N
1597492115.2,286046999.9,N
1597492135.1,286047000.2,N
1597492136.0,286047000.2,N
1597492155.8,286047000.0,N
1597492175.6,286047002.8,N
1597492195.5,286047000.8,N
1597492215.3,286047000.7,N
1597492235.1,286047000.2,N
1597492255.9,286047000.6,N
1597492275.7,286047000.1,N
1597492295.5,286047000.9,N
1597492315.3,286047000.6,N
1597492335.2,286046999.8,N
1597492355.0,286046999.8,N
1597492355.9,286046999.8,N
1597492375.8,286047000.1,N
1597492395.6,286047002.6,N
1597492415.4,286047001.8,N
1597492435.2,286047002.2,N
1597492455.1,286047002.3,N
1597492456.0,286047002.3,N
1597492475.8,286047000.1,N
1597492495.6,286047001.9,N
1597492515.5,286047001.9,N
1597492535.3,286047002.7,N
1597492555.1,286047002.6,N
1597492575.9,286047002.0,N
1597492595.7,286047002.6,N
1597492615.5,286047001.6,N
1597492635.4,286047002.3,N
1597492655.2,286047002.6,N
1597492675.0,286047002.4,N
1597492675.9,286047002.4,N
1597492695.8,286047002.7,N
1597492715.6,286047001.9,N
1597492735.4,286047001.4,N
1597492755.3,286047002.6,N
1597492775.1,286047001.8,N
1597492795.8,286047002.5,N
